Regional Weather Roundup
Issued by NWS

Home | Current Version | Previous Version | Graphics & Text | Print | Product List | Glossary On
Versions: 1 2 3 4 5 6 7 8 9 10 11 12 13 14 15 16 17 18 19 20 21 22 23 24 25 26 27 28 29 30 31 32 33 34 35 36 37 38 39 40 41 42 43 44 45 46 47 48 49 50
000
ASUS45 KPSR 171400
RWRAZ

PRELIMINARY ARIZONA REGIONAL HOURLY WEATHER ROUNDUP
NATIONAL WEATHER SERVICE PHOENIX AZ
700 AM MST WED SEP 17 2014

NOTE: FAIR INDICATES FEW OR NO CLOUDS BELOW 12,000 FEET WITH NO
SIGNIFICANT WEATHER AND/OR OBSTRUCTIONS TO VISIBILITY.

AZZ001>003-036-171500-
NORTHWEST ARIZONA

CITY           SKY/WX    TMP DP  RH WIND       PRES   REMARKS
KINGMAN        CLEAR     65  59  81 S3        29.99R
$$

AZZ004>008-015-016-018-171500-
NORTH CENTRAL ARIZONA

CITY           SKY/WX    TMP DP  RH WIND       PRES   REMARKS
GRAND CANYON   PTCLDY    52  49  89 CALM      30.21R
PRESCOTT       LGT RAIN  64  59  83 CALM      30.09R
FLAGSTAFF      CLOUDY    57  53  86 NE5       30.22R
PAYSON         DRIZZLE   63  61  94 E5        30.12S
PAGE           MOCLDY    71  54  54 VRB3      30.06R
$$

AZZ009>014-017-171500-
NORTHEAST ARIZONA

CITY           SKY/WX    TMP DP  RH WIND       PRES   REMARKS
WINSLOW        NOT AVBL
SAINT JOHNS    LGT RAIN  61  59  93 E6        30.16R
SHOW LOW       LGT RAIN  55  55 100 CALM      30.22R
$$

AZZ023-171500-
GREATER PHOENIX AREA

CITY           SKY/WX    TMP DP  RH WIND       PRES   REMARKS
PHOENIX        CLOUDY    81  67  62 NE13      29.79S
DEER VALLEY    CLOUDY    80  65  59 NE8       29.82S
SCOTTSDALE     CLOUDY    80  67  64 NE3       29.84S
MESA-FALCON    MOCLDY    77  68  73 N13       29.81R
MESA-GATEWAY   MOCLDY    77  72  83 S3        29.83F
CHANDLER       MOCLDY    77  72  83 CALM      29.81S
$$

AZZ027-028-171500-
SOUTHWEST MARICOPA COUNTY AND PINAL COUNTY

CITY           SKY/WX    TMP DP  RH WIND       PRES   REMARKS
CASA GRANDE    CLOUDY    77  66  69 E9        29.82S
GILA BEND      PTSUNNY   79  70  73 E6        29.79
$$

AZZ503-504-507>509-171500-
SOUTHEAST ARIZONA

CITY           SKY/WX    TMP DP  RH WIND       PRES   REMARKS
TUCSON         CLOUDY    75  68  78 CALM      29.91R
RYAN FIELD       N/A     73  70  88 SE3       29.89S
NOGALES        RAIN      66  65  96 NW3       29.95S FOG
SIERRA VISTA   LGT RAIN  66  64  94 E13       30.03R
SAFFORD        CLOUDY    70  65  84 E6        29.98R
$$

AZZ020-021-025-026-031-171500-
SOUTHWEST ARIZONA

CITY           SKY/WX    TMP DP  RH WIND       PRES   REMARKS
YUMA           NOT AVBL
$$

CAZ031-033-041-043-047-048-061-171500-
SOUTHERN CALIFORNIA

CITY           SKY/WX    TMP DP  RH WIND       PRES   REMARKS
DOWNTOWN L.A.  CLEAR     77  62  59 CALM      29.72R
L.A. AIRPORT   PTCLDY    75  64  68 W3        29.73R
SAN DIEGO      PTCLDY    76  70  82 NW3       29.73R
BURBANK        CLEAR     80  59  48 CALM      29.76R
ONTARIO        CLEAR     82  66  58 CALM      29.77R
RIVERSIDE      CLEAR     81  64  56 NE3       29.77R
PALM SPRINGS   CLEAR     84  66  54 W3        29.78R
EL CENTRO NAS  PTCLDY    81  64  56 W5        29.73S
IMPERIAL       CLEAR     85  65  51 CALM      29.73R
BLYTHE         CLOUDY    81  72  74 CALM      29.77R
$$

NVZ020-UTZ003-171500-
SOUTHERN NEVADA-UTAH

CITY           SKY/WX    TMP DP  RH WIND       PRES   REMARKS
LAS VEGAS      NOT AVBL
SALT LAKE CITY PTCLDY    70  43  37 SE9       29.97R
$$

NMZ009-TXZ055-171500-
NEW MEXICO-WEST TEXAS

CITY           SKY/WX    TMP DP  RH WIND       PRES   REMARKS
ALBUQUERQUE    CLOUDY    63  57  81 E3        30.18S
EL PASO        LGT RAIN  68  64  87 N7        30.09R
$$


........................KEY........................
SKY/WX - SKY CONDITION/WEATHER
TMP    - TEMPERATURE IN FAHRENHEIT
DP     - DEW POINT IN FAHRENHEIT
RH     - RELATIVE HUMIDITY IN PERCENT
WIND   - DIRECTION AND SPEED IN MILES PER HOUR (MPH)
VRB    - VARIABLE WIND DIRECTION
PRES   - MEAN SEA LEVEL PRESSURE IN INCHES OF MERCURY
         F - FALLING PRESSURE   R - RISING PRESSURE
         S - STEADY PRESSURE
VSB    - VISIBILITY IN MILES
HX     - HEAT INDEX IN FAHRENHEIT
WCI    - WIND CHILL INDEX IN FAHRENHEIT
TC     - TEMPERATURE IN CELSIUS WHICH IS ALSO KNOWN AS
         TEMPERATURE IN CENTIGRADE
AFB    - AIR FORCE BASE
         LUKE AFB IS LUKE AIR FORCE BASE
         DAVIS-MONTHAN IS DAVIS-MONTHAN AIR FORCE BASE
NAS    - NAVAL AIR STATION
         EL CENTRO NAS IS EL CENTRO NAVAL AIR STATION
N/A    - NOT AVAILABLE


USA.gov is the U.S. government's official web portal to all federal, state and local government web resources and services.